Location: Cerezo de Arriba
(41.2389°N, 3.5585°W)
Time: 03:10:37
(UTC+00:00)

USA 229 - Pass Details

Date: 19 May 2025
Orbit: 872 x 1339 km, 63.4° (Epoch: 20 June)

Event Time Altitude Azimuth Distance (km) Brightness Sun altitude
Exits shadow 23:20:51 58° 99° (E) 1,097 3.5 -27.7°
Drops below altitude 10° 23:26:47 10° 41° (NE) 2,814 6.3 -27.9°
Sets 23:29:34 0° 38° (NE) 3,841 7.2 -28.0°
